[[{"header":{"parameterUnit":"m.s-1","parameterCategory":1,"la1":30.2991,"la2":30.254,"lo1":-89.0895,"lo2":-89.0444,"dy":0.0017,"dx":0.0017,"nx":28,"ny":28,"refTime":"2025-09-15T21:00:00:Z","depth":0,"parameterNumber":2,"parameterNumberName":"U-component_of_WINDS"},"data":[0,0,0,0,0,0,0,0,0,0,0,0,0,0,0,0,0,0,0,0,0,0,0,0,0,0,0,0,0,0,0,0,0,0,0,0,0,0,0,0,0,0,0,0,0,0,0,0,0,0,0,0,0,0,0,0,0,0,-1.2531,-1.253,0,-1.2489,-1.2489,-1.2488,-1.2496,-1.2496,-1.2497,-1.2498,-1.245,-1.2448,-1.2446,0,0,0,0,0,0,0,0,0,0,0,0,0,-1.2614,-1.2613,-1.2531,-1.253,-1.253,-1.2489,-1.2489,-1.2488,-1.2495,-1.2496,-1.2497,-1.2498,-1.2451,-1.2448,-1.2446,0,0,0,0,0,0,0,0,0,0,0,0,0,-1.2576,-1.2612,-1.2531,-1.2529,-1.2528,-1.2489,-1.2489,-1.2488,-1.2495,-1.2496,-1.2498,-1.2499,-1.2451,-1.2449,-1.2446,-1.2405,0,0,-1.2437,-1.2435,0,0,0,0,0,0,0,0,-1.2578,-1.2573,-1.253,-1.2529,-1.2528,-1.2499,-1.25,-1.246,-1.2495,-1.2508,-1.2498,-1.2499,-1.2465,-1.2461,-1.245,-1.2402,-1.24,-1.2436,-1.2434,-1.2433,-1.2432,0,0,0,0,0,0,0,-1.258,-1.2574,-1.2514,-1.2529,-1.2528,-1.2529,-1.2525,-1.2493,-1.248,-1.2507,-1.2507,-1.2502,-1.2465,-1.2453,-1.2449,-1.24,-1.2436,-1.2434,-1.2432,-1.2431,-1.2317,-1.2316,0,0,0,0,0,0,-1.2584,-1.2577,-1.2515,-1.2513,-1.2556,-1.2527,-1.2522,-1.2507,-1.2481,-1.2478,-1.2501,-1.2503,-1.2458,-1.2453,-1.2448,-1.2398,-1.2433,-1.243,-1.2429,-1.2318,-1.2317,-1.2316,0,0,0,0,0,0,-1.2586,-1.2579,-1.2517,-1.2545,-1.2537,-1.2524,-1.2507,-1.2506,-1.2494,-1.2477,-1.2474,-1.2492,-1.2459,-1.2452,-1.2416,-1.2397,-1.2429,-1.2426,-1.232,-1.2318,-1.2316,-1.2299,0,0,0,0,0,0,-1.2589,-1.2579,-1.2564,-1.2545,-1.2536,-1.2487,-1.2506,-1.2504,-1.249,-1.2491,-1.2467,-1.2465,-1.2459,-1.242,-1.2413,-1.2393,-1.2424,-1.2321,-1.2319,-1.2317,-1.2301,-1.2297,-1.2293,0,0,0,0,0,-1.2591,-1.2559,-1.2563,-1.2556,-1.2517,-1.2486,-1.248,-1.2476,-1.2488,-1.2472,-1.2462,-1.2465,-1.2401,-1.2417,-1.2408,-1.2387,-1.2323,-1.232,-1.2317,-1.2303,-1.2298,-1.2293,0,0,0,0,0,0,-1.2574,-1.2557,-1.2561,-1.2522,-1.2506,-1.2487,-1.2466,-1.247,-1.2449,-1.2451,-1.2445,-1.2439,-1.2403,-1.2392,-1.241,-1.2347,-1.2363,-1.2359,-1.2355,-1.235,-1.2346,-1.2348,-1.2422,0,0,0,0,0,-1.2567,-1.2545,-1.253,-1.2497,-1.2489,-1.2479,-1.2466,-1.2464,-1.2446,-1.2439,-1.2425,-1.2406,-1.2382,-1.2366,-1.2342,-1.2301,-1.2295,-1.2282,-1.2278,-1.2275,-1.227,-1.2248,-1.2242,-1.2306,-1.2306,-1.2307,0,0,-1.2549,-1.2537,-1.2523,-1.2493,-1.248,-1.2456,-1.2473,-1.2447,-1.2429,-1.2434,-1.2399,-1.2389,-1.2368,-1.233,-1.2312,-1.2319,-1.2252,-1.2272,-1.2269,-1.2266,-1.2245,-1.2239,-1.2233,-1.2305,-1.2305,-1.2305,0,0,-1.2505,-1.2494,-1.2466,-1.2454,-1.2435,-1.243,-1.2423,-1.2405,-1.2399,-1.2365,-1.2369,-1.2347,-1.2305,-1.229,-1.2277,-1.2231,-1.2234,-1.2224,-1.2201,-1.218,-1.2175,-1.217,-1.2153,-1.2147,-1.222,-1.222,-1.222,0,-1.2485,-1.2451,-1.245,-1.2424,-1.2411,-1.2418,-1.2389,-1.2377,-1.235,-1.2341,-1.235,-1.2299,-1.2286,-1.2244,-1.2233,-1.2222,-1.2214,-1.2225,-1.2176,-1.2171,-1.2167,-1.2151,-1.2144,-1.2219,-1.2219,-1.2219,-1.2219,0,-1.2427,-1.2403,-1.2382,-1.236,-1.2344,-1.2317,-1.2312,-1.2296,-1.2297,-1.2291,-1.2256,-1.2241,-1.2215,-1.2206,-1.2205,-1.2164,-1.2169,-1.2178,-1.2193,-1.216,-1.2144,-1.2138,-1.2217,-1.2217,-1.2218,-1.2218,0,0,-1.2367,-1.2348,-1.234,-1.233,-1.2312,-1.2293,-1.2266,-1.2243,-1.223,-1.2213,-1.2189,-1.2156,-1.2164,-1.2149,-1.2148,-1.2129,-1.2094,-1.2139,-1.2139,-1.2131,-1.2047,-1.204,-1.2033,-1.2097,-1.2095,-1.2095,-1.2049,0,-1.2321,-1.2275,-1.2275,-1.2232,-1.221,-1.2219,-1.2196,-1.2181,-1.2175,-1.2155,-1.2148,-1.2124,-1.2137,-1.2129,-1.2111,-1.2102,-1.2076,-1.2105,-1.2073,-1.2072,-1.2077,-1.2025,-1.2016,-1.1974,-1.2043,-1.2042,-1.2041,0,-1.2259,-1.2243,-1.2198,-1.2185,-1.2176,-1.2155,-1.2135,-1.2116,-1.21,-1.2097,-1.2083,-1.2085,-1.2057,-1.2076,-1.2038,-1.2058,-1.2045,-1.2039,-1.2038,-1.2032,-1.2053,-1.2017,-1.196,-1.1953,-1.2032,-1.2033,-1.2033,0,-1.2219,-1.2186,-1.2155,-1.2147,-1.2131,-1.2116,-1.2108,-1.2094,-1.2081,-1.2063,-1.2055,-1.2034,-1.2021,-1.2005,-1.2001,-1.2015,-1.1963,-1.1981,-1.1958,-1.1958,-1.1944,-1.1945,-1.1883,-1.194,-1.194,-1.194,-1.194,0,-1.2166,-1.2138,-1.2137,-1.2118,-1.2087,-1.2089,-1.2058,-1.2052,-1.204,-1.2019,-1.2025,-1.2005,-1.2003,-1.1982,-1.198,-1.1948,-1.1943,-1.1939,-1.1938,-1.1937,-1.1938,-1.1927,-1.1929,-1.1938,-1.1939,-1.1939,-1.1939,0,-1.2114,-1.2113,-1.208,-1.2069,-1.2066,-1.2043,-1.2033,-1.2015,-1.2012,-1.1985,-1.1979,-1.1973,-1.1949,-1.1945,-1.1917,-1.1915,-1.1877,-1.188,-1.1883,-1.1883,-1.186,-1.1861,-1.1787,-1.1777,-1.1842,-1.1842,-1.1841,0,-1.2079,-1.2058,-1.2046,-1.2034,-1.2026,-1.2006,-1.1993,-1.1995,-1.1981,-1.1964,-1.1947,-1.1925,-1.1907,-1.187,-1.1861,-1.184,-1.1842,-1.1818,-1.1838,-1.1839,-1.184,-1.1841,-1.1838,-1.1813,-1.1812,-1.1811,-1.1811,0,-1.2016,-1.2018,-1.2,-1.1983,-1.1968,-1.1954,-1.1941,-1.193,-1.193,-1.1914,-1.1892,-1.1878,-1.1851,-1.1829,-1.1809,-1.18,-1.1805,-1.1805,-1.1799,-1.1796,-1.1798,-1.1796,-1.187,-1.1806,-1.1806,-1.1807,-1.1807,-1.1807,-1.1971,-1.1954,-1.1943,-1.1923,-1.1915,-1.1903,-1.1885,-1.1881,-1.1863,-1.1842,-1.1844,-1.1819,-1.1806,-1.178,-1.177,-1.175,-1.1758,-1.1748,-1.1745,-1.1743,-1.174,-1.1804,-1.1747,-1.1747,-1.1747,-1.1747,-1.1747,0,-1.1908,-1.1903,-1.1885,-1.1868,-1.1853,-1.1862,-1.1849,-1.1835,-1.1813,-1.1802,-1.1785,-1.176,-1.1739,-1.1731,-1.1711,-1.1697,-1.1698,-1.1691,-1.1691,-1.1689,-1.1735,-1.1742,-1.169,-1.169,-1.169,-1.169,-1.169,-1.169,-1.1873,-1.1844,-1.1845,-1.1811,-1.1806,-1.1783,-1.1774,-1.1764,-1.1755,-1.1727,-1.171,-1.1706,-1.1696,-1.1676,-1.1657,-1.1655,-1.1647,-1.1638,-1.1637,-1.168,-1.1685,-1.1691,-1.1697,-1.1637,-1.1637,-1.1592,-1.1592,-1.1592]},{"header":{"parameterUnit":"m.s-1","parameterCategory":1,"la1":30.2991,"la2":30.254,"lo1":-89.0895,"lo2":-89.0444,"dy":0.0017,"dx":0.0017,"nx":28,"ny":28,"refTime":"2025-09-15T21:00:00:Z","depth":0,"parameterNumber":3,"parameterNumberName":"V-component_of_WINDS"},"data":[0,0,0,0,0,0,0,0,0,0,0,0,0,0,0,0,0,0,0,0,0,0,0,0,0,0,0,0,0,0,0,0,0,0,0,0,0,0,0,0,0,0,0,0,0,0,0,0,0,0,0,0,0,0,0,0,0,0,2.1656,2.1657,0,2.1705,2.1706,2.1706,2.1729,2.1729,2.1729,2.1729,2.1776,2.1777,2.1778,0,0,0,0,0,0,0,0,0,0,0,0,0,2.1577,2.1578,2.1656,2.1657,2.1657,2.1705,2.1706,2.1707,2.1729,2.1729,2.1729,2.1729,2.1775,2.1777,2.1778,0,0,0,0,0,0,0,0,0,0,0,0,0,2.1617,2.1578,2.1656,2.1674,2.1677,2.1705,2.1706,2.1707,2.1729,2.1729,2.1729,2.1729,2.1775,2.1777,2.1778,2.1791,0,0,2.1784,2.1785,0,0,0,0,0,0,0,0,2.1614,2.162,2.1671,2.1673,2.1676,2.1711,2.1695,2.1735,2.1729,2.1709,2.1729,2.1729,2.1754,2.1758,2.1767,2.1794,2.1796,2.1785,2.1786,2.1787,2.1787,0,0,0,0,0,0,0,2.1612,2.1618,2.1676,2.1672,2.1675,2.1678,2.1684,2.1703,2.1731,2.1711,2.1712,2.1718,2.1755,2.1765,2.1768,2.1796,2.1784,2.1786,2.1787,2.1788,2.1833,2.1833,0,0,0,0,0,0,2.1607,2.1615,2.1674,2.1677,2.1644,2.168,2.1686,2.17,2.1731,2.1736,2.1718,2.1719,2.1762,2.1766,2.177,2.1785,2.1786,2.1788,2.1789,2.1833,2.1833,2.1833,0,0,0,0,0,0,2.1605,2.1612,2.1672,2.1647,2.1655,2.1681,2.1696,2.1701,2.1711,2.1737,2.1741,2.1723,2.1762,2.1767,2.1785,2.1787,2.1789,2.1791,2.1833,2.1833,2.1833,2.1817,0,0,0,0,0,0,2.1602,2.1611,2.1618,2.1647,2.1656,2.1689,2.1696,2.1702,2.1714,2.1716,2.1743,2.1747,2.1762,2.1782,2.1787,2.179,2.1792,2.1833,2.1833,2.1833,2.1818,2.1817,2.1816,0,0,0,0,0,2.1599,2.1611,2.1618,2.1625,2.1665,2.1689,2.1694,2.1712,2.1714,2.172,2.1736,2.1746,2.1786,2.1784,2.179,2.1793,2.1833,2.1833,2.1833,2.1818,2.1817,2.1816,0,0,0,0,0,0,2.1581,2.1616,2.1623,2.1645,2.1664,2.1692,2.1701,2.1711,2.1728,2.1729,2.1749,2.1755,2.1771,2.1784,2.1781,2.1805,2.181,2.1811,2.1797,2.1796,2.1795,2.1791,2.1794,0,0,0,0,0,2.158,2.1598,2.1626,2.1642,2.1651,2.1674,2.1685,2.1697,2.1717,2.1725,2.1743,2.176,2.1776,2.1787,2.1804,2.1819,2.1824,2.1824,2.1823,2.1822,2.1823,2.183,2.1829,2.1833,2.1833,2.1833,0,0,2.1577,2.1598,2.1608,2.1639,2.1655,2.1671,2.1681,2.1698,2.1709,2.1727,2.1746,2.1759,2.1779,2.1796,2.1804,2.1807,2.1823,2.1822,2.1821,2.1823,2.183,2.1829,2.1829,2.1833,2.1833,2.1833,0,0,2.158,2.1599,2.1613,2.1629,2.1652,2.1667,2.167,2.1697,2.1706,2.1725,2.1738,2.1751,2.1779,2.1793,2.1804,2.1808,2.1817,2.1812,2.1808,2.1814,2.1814,2.1814,2.1813,2.1813,2.1813,2.1813,2.1813,0,2.1574,2.16,2.1619,2.1635,2.1647,2.1664,2.1677,2.1691,2.1718,2.1725,2.1728,2.1763,2.1778,2.1797,2.1797,2.1806,2.1809,2.181,2.1812,2.1812,2.1812,2.1813,2.1813,2.1812,2.1812,2.1813,2.1813,0,2.1589,2.1607,2.1615,2.1642,2.1655,2.1669,2.1688,2.1699,2.1709,2.1722,2.1739,2.1758,2.1778,2.1783,2.1793,2.1802,2.1803,2.1809,2.1814,2.1811,2.1811,2.1812,2.1811,2.1812,2.1812,2.1812,0,0,2.1585,2.1619,2.1622,2.1633,2.1659,2.1672,2.1685,2.1705,2.1713,2.173,2.1741,2.1763,2.1768,2.178,2.1791,2.1797,2.1796,2.1802,2.1802,2.1799,2.1805,2.18,2.18,2.1802,2.1802,2.1802,2.1803,0,2.159,2.1617,2.1633,2.1653,2.1667,2.1682,2.1693,2.1709,2.1721,2.1734,2.1747,2.1762,2.1768,2.1775,2.1781,2.1795,2.1798,2.1795,2.1811,2.1811,2.1805,2.18,2.1795,2.1795,2.1803,2.1803,2.1803,0,2.1602,2.1618,2.1639,2.1661,2.1667,2.1678,2.1695,2.1708,2.1725,2.1733,2.1745,2.1756,2.1769,2.1772,2.1789,2.1787,2.1794,2.1801,2.1801,2.1803,2.1807,2.1801,2.1796,2.1795,2.1804,2.1804,2.1804,0,2.1594,2.1622,2.1637,2.1646,2.1672,2.1678,2.1689,2.1707,2.1716,2.1731,2.1737,2.1753,2.1761,2.1772,2.1786,2.1788,2.18,2.1806,2.1806,2.1806,2.1808,2.1808,2.1803,2.1814,2.1814,2.1814,2.1814,0,2.1598,2.161,2.1634,2.1643,2.1655,2.1673,2.1684,2.1696,2.171,2.1721,2.1734,2.1743,2.1762,2.1772,2.1783,2.1794,2.1798,2.1804,2.1806,2.1802,2.1801,2.1807,2.1807,2.1814,2.1814,2.1814,2.1814,0,2.1592,2.1609,2.1626,2.1649,2.1654,2.1662,2.1681,2.1689,2.1701,2.1714,2.1718,2.1736,2.1749,2.1764,2.1783,2.179,2.1799,2.1804,2.1793,2.1795,2.1794,2.1793,2.1792,2.1792,2.1803,2.1803,2.1803,0,2.1594,2.1603,2.1626,2.1634,2.1645,2.1658,2.1667,2.1683,2.1692,2.1711,2.1716,2.173,2.1743,2.1762,2.1777,2.179,2.1794,2.1792,2.1796,2.1791,2.1792,2.1791,2.1791,2.1791,2.1791,2.1791,2.1791,0,2.1594,2.1601,2.1615,2.1631,2.1642,2.1655,2.1668,2.1674,2.1692,2.1701,2.1715,2.1724,2.1742,2.1755,2.1769,2.1779,2.1787,2.1789,2.179,2.1786,2.1779,2.1781,2.179,2.179,2.179,2.179,2.179,2.179,2.1592,2.1599,2.1616,2.163,2.1641,2.1653,2.1661,2.1674,2.1685,2.1701,2.171,2.1722,2.1736,2.1757,2.1766,2.1775,2.1778,2.1779,2.1779,2.1779,2.1777,2.1778,2.1778,2.1778,2.1778,2.1778,2.1778,0,2.1591,2.1602,2.1615,2.1633,2.1643,2.165,2.1664,2.1672,2.1683,2.1696,2.1707,2.1721,2.1733,2.1748,2.176,2.1764,2.1768,2.1767,2.1767,2.1768,2.1774,2.1772,2.1763,2.1763,2.1763,2.1763,2.1763,2.1763,2.1593,2.1605,2.1614,2.1631,2.1642,2.1655,2.1662,2.1672,2.1682,2.1697,2.1707,2.1716,2.1729,2.1742,2.1752,2.1756,2.1759,2.1757,2.1761,2.1767,2.1768,2.1769,2.1767,2.1757,2.1757,2.1754,2.1754,2.1754]}]]